Taranto — V2AK2 — position and weather

sailwx.info

Track history (hours):
 
Tides and Currents Weather Stations Pressure Air Temp Water Temp Dewpoint Dewpoint Depression Visibility Wind Speed Wind Dir Waves Ship Positions

Taranto

Last reported at 2014-Jul-28 10:14 UTC. Time now 2014-Jul-31 13:41 UTC.
Position N 46°11' W 001°49'.

Length 88 m; draft 4.8 m.

Type: Cargo ship. MMSI: 304010614.

Date/timePositionNaut miles runAvg speedWind from/ knotsBaromVisibWave heightAir tempDewpointWater temp
2014-Jul-28 10:14N 46°11' W 001°49'  
2014-Jul-26 05:08N 50°36' E 000°19'1011.1
2014-Jul-26 04:12N 50°39' E 000°34'1211.0
2014-Jul-26 03:05N 50°46' E 000°50'31 8.8
2014-Jul-25 23:34N 51°05' E 001°29'8 7.5
2014-Jul-25 22:33N 51°10' E 001°38'9 8.8
2014-Jul-25 21:33N 51°16' E 001°48'1110.8
2014-Jul-25 20:31N 51°24' E 001°60'9 9.5
2014-Jul-25 19:33N 51°21' E 002°14'1111.1
2014-Jul-25 18:32N 51°23' E 002°32'1110.5
2014-Jul-25 17:29N 51°22' E 002°49'2411.3
2014-Jul-25 15:21N 51°25' E 003°28'911.0
2014-Jul-25 14:33N 51°27' E 003°41'2 1.5
2014-Jul-25 13:31N 51°27' E 003°43'0 0.0
2014-Jul-25 12:31N 51°27' E 003°43'0 0.0
2014-Jul-25 11:31N 51°27' E 003°43'0 0.0
2014-Jul-25 10:31N 51°27' E 003°43'0 0.0
2014-Jul-25 09:31N 51°27' E 003°43'0 0.0
2014-Jul-25 08:31N 51°27' E 003°43'0 0.0
2014-Jul-25 07:31N 51°27' E 003°43'0 0.0
2014-Jul-25 06:31N 51°27' E 003°43'0 0.0
2014-Jul-25 05:31N 51°27' E 003°43'0 0.0
2014-Jul-25 04:31N 51°27' E 003°43'0 0.0
2014-Jul-25 03:31N 51°27' E 003°43'0 0.0
2014-Jul-25 02:31N 51°27' E 003°43'0 0.0
2014-Jul-25 01:31N 51°27' E 003°43'0 0.0
2014-Jul-25 00:31N 51°27' E 003°43'0 0.0
2014-Jul-24 23:31N 51°27' E 003°43'0 0.0
2014-Jul-24 22:31N 51°27' E 003°43'0 0.0
2014-Jul-24 21:31N 51°27' E 003°43'0 0.0
2014-Jul-24 20:25N 51°27' E 003°43'0 0.0
2014-Jul-24 19:31N 51°27' E 003°43'0 0.0
2014-Jul-24 18:31N 51°27' E 003°43'0 0.1
2014-Jul-24 17:33N 51°27' E 003°43'6 5.9
2014-Jul-24 16:33N 51°26' E 003°34'9 8.9
2014-Jul-24 15:33N 51°33' E 003°25'10 9.8
2014-Jul-24 14:32N 51°42' E 003°17'8 8.5
2014-Jul-24 13:34N 51°48' E 003°08'5 4.9
2014-Jul-24 12:33N 51°52' E 003°04'9 9.3
2014-Jul-24 11:32N 51°59' E 002°54'1010.1
2014-Jul-24 10:33N 52°05' E 002°40'1010.5
2014-Jul-24 09:33N 52°14' E 002°32'3711.3
2014-Jul-24 06:17N 52°44' E 001°56'1212.4
2014-Jul-24 05:18N 52°52' E 001°41'912.2
2014-Jul-24 04:33N 52°57' E 001°28'4610.5
2014-Jul-24 00:14N 53°30' E 000°36'1910.5
2014-Jul-23 22:27N 53°48' E 000°24'21 9.6
2014-Jul-23 20:18N 54°06' E 000°07'7 9.2
2014-Jul-23 19:33N 54°12' E 000°01'10 9.5
2014-Jul-23 18:33N 54°20' W 000°08'10 9.8
2014-Jul-23 17:33N 54°27' W 000°18'1110.2
2014-Jul-23 16:29N 54°34' W 000°33'1010.5
2014-Jul-23 15:33N 54°39' W 000°47'1110.8
2014-Jul-23 14:33N 54°45' W 001°03'1110.1
2014-Jul-23 13:30N 54°50' W 001°19'0 0.0
2014-Jul-22 23:18N 54°50' W 001°20'0 0.0
2014-Jul-22 15:28N 54°50' W 001°20'0 0.0
2014-Jul-22 14:19N 54°50' W 001°20'0 0.0
2014-Jul-22 13:34N 54°50' W 001°20'0 0.0
2014-Jul-22 11:18N 54°50' W 001°20'0 0.0
2014-Jul-22 10:28N 54°50' W 001°20'1 1.3
2014-Jul-22 09:33N 54°50' W 001°18'0 0.1
2014-Jul-22 07:32N 54°50' W 001°18'5 4.6
2014-Jul-22 06:32N 54°48' W 001°10'1110.2
2014-Jul-22 05:26N 54°42' W 000°55'910.2
2014-Jul-22 04:33N 54°37' W 000°41'10 9.8
2014-Jul-22 03:33N 54°32' W 000°27'9 9.2
2014-Jul-22 02:34N 54°25' W 000°16'9 8.7
2014-Jul-22 01:33N 54°19' W 000°06'8 8.3
2014-Jul-22 00:34N 54°13' E 000°03'8 8.3
2014-Jul-21 23:34N 54°06' E 000°12'74 9.1
2014-Jul-21 15:28N 53°01' E 001°12'7 7.6
2014-Jul-21 14:33N 52°59' E 001°23'7 7.4
2014-Jul-21 13:34N 52°56' E 001°34'8 8.1
2014-Jul-21 12:33N 52°50' E 001°44'77 9.6
2014-Jul-21 04:32N 51°51' E 003°04'9 8.9
2014-Jul-21 03:30N 51°44' E 003°13'6 6.8
2014-Jul-21 02:33N 51°39' E 003°20'11 9.2
2014-Jul-21 01:22N 51°30' E 003°29'8 9.6
2014-Jul-21 00:33N 51°25' E 003°39'8 8.1
2014-Jul-20 23:33N 51°20' E 003°49'7 6.7
2014-Jul-20 22:33N 51°13' E 003°48'2 2.3
2014-Jul-20 21:31N 51°11' E 003°48'0 0.0
2014-Jul-20 20:28N 51°11' E 003°48'0 0.0
2014-Jul-20 19:16N 51°11' E 003°48'0 0.0
2014-Jul-20 18:16N 51°11' E 003°48'0 0.0
2014-Jul-20 17:22N 51°11' E 003°48'0 0.0
2014-Jul-20 16:31N 51°11' E 003°48'0 0.0
2014-Jul-20 15:22N 51°11' E 003°48'0 0.0
2014-Jul-20 13:25N 51°11' E 003°48'0 0.0
2014-Jul-20 12:10N 51°11' E 003°48'0 0.0
2014-Jul-20 11:22N 51°11' E 003°48'0 0.0
2014-Jul-20 10:22N 51°11' E 003°48'0 0.0
2014-Jul-20 09:22N 51°11' E 003°48'0 0.0
2014-Jul-20 08:22N 51°11' E 003°48'0 0.0
2014-Jul-20 07:25N 51°11' E 003°48'0 0.0
2014-Jul-20 06:22N 51°11' E 003°48'0 0.0
2014-Jul-20 05:22N 51°11' E 003°48'0 0.0
2014-Jul-20 04:31N 51°11' E 003°48'0 0.0
2014-Jul-20 03:31N 51°11' E 003°48'0 0.0
2014-Jul-20 02:31N 51°11' E 003°48'0 0.0
2014-Jul-20 01:31N 51°11' E 003°48'0 0.0
2014-Jul-20 00:31N 51°11' E 003°48'0 0.0
2014-Jul-19 23:16N 51°11' E 003°48'0 0.0
2014-Jul-19 22:28N 51°11' E 003°48'0 0.0
2014-Jul-19 21:31N 51°11' E 003°48'0 0.0
2014-Jul-19 20:28N 51°11' E 003°48'0 0.0
2014-Jul-19 19:25N 51°11' E 003°48'0 0.0
2014-Jul-19 18:28N 51°11' E 003°48'0 0.0
2014-Jul-19 17:28N 51°11' E 003°48'0 0.0
2014-Jul-19 16:31N 51°11' E 003°48'0 0.0
2014-Jul-19 15:33N 51°11' E 003°48'0 0.0
2014-Jul-19 14:32N 51°11' E 003°48'0 0.0
2014-Jul-19 13:33N 51°11' E 003°48'0 0.0
2014-Jul-19 12:33N 51°11' E 003°48'0 0.0
2014-Jul-19 11:33N 51°11' E 003°48'0 0.0
2014-Jul-19 10:33N 51°11' E 003°48'0 0.0
2014-Jul-19 09:33N 51°11' E 003°48'0 0.0
2014-Jul-19 08:33N 51°11' E 003°48'0 0.0
2014-Jul-19 07:33N 51°11' E 003°48'0 0.0
2014-Jul-19 06:33N 51°11' E 003°48'0 0.0
2014-Jul-19 05:32N 51°11' E 003°48'0 0.0
2014-Jul-19 04:32N 51°11' E 003°48'0 0.0
2014-Jul-19 03:33N 51°11' E 003°48'0 0.0
2014-Jul-19 02:32N 51°11' E 003°48'0 0.0
2014-Jul-19 01:19N 51°11' E 003°48'0 0.0
2014-Jul-19 00:32N 51°11' E 003°48'0 0.0
2014-Jul-18 23:33N 51°11' E 003°48'6 5.7
2014-Jul-18 22:33N 51°16' E 003°50'5 5.1
2014-Jul-18 21:33N 51°21' E 003°47'7 7.4
2014-Jul-18 20:34N 51°25' E 003°38'9 8.3
2014-Jul-18 19:31N 51°31' E 003°27'  
Track history (hours):
 
Tides and Currents Weather Stations Pressure Air Temp Water Temp Dewpoint Dewpoint Depression Visibility Wind Speed Wind Dir Waves Ship Positions

Taranto

Last reported at 2014-Jul-28 10:14 UTC. Time now 2014-Jul-31 13:41 UTC.
Position N 46°11' W 001°49'.

Length 88 m; draft 4.8 m.

Type: Cargo ship. MMSI: 304010614.

Date/timePositionNaut miles runAvg speedWind from/ knotsBaromVisibWave heightAir tempDewpointWater temp
2014-Jul-28 10:14N 46°11' W 001°49'  
2014-Jul-26 05:08N 50°36' E 000°19'1011.1
2014-Jul-26 04:12N 50°39' E 000°34'1211.0
2014-Jul-26 03:05N 50°46' E 000°50'31 8.8
2014-Jul-25 23:34N 51°05' E 001°29'8 7.5
2014-Jul-25 22:33N 51°10' E 001°38'9 8.8
2014-Jul-25 21:33N 51°16' E 001°48'1110.8
2014-Jul-25 20:31N 51°24' E 001°60'9 9.5
2014-Jul-25 19:33N 51°21' E 002°14'1111.1
2014-Jul-25 18:32N 51°23' E 002°32'1110.5
2014-Jul-25 17:29N 51°22' E 002°49'2411.3
2014-Jul-25 15:21N 51°25' E 003°28'911.0
2014-Jul-25 14:33N 51°27' E 003°41'2 1.5
2014-Jul-25 13:31N 51°27' E 003°43'0 0.0
2014-Jul-25 12:31N 51°27' E 003°43'0 0.0
2014-Jul-25 11:31N 51°27' E 003°43'0 0.0
2014-Jul-25 10:31N 51°27' E 003°43'0 0.0
2014-Jul-25 09:31N 51°27' E 003°43'0 0.0
2014-Jul-25 08:31N 51°27' E 003°43'0 0.0
2014-Jul-25 07:31N 51°27' E 003°43'0 0.0
2014-Jul-25 06:31N 51°27' E 003°43'0 0.0
2014-Jul-25 05:31N 51°27' E 003°43'0 0.0
2014-Jul-25 04:31N 51°27' E 003°43'0 0.0
2014-Jul-25 03:31N 51°27' E 003°43'0 0.0
2014-Jul-25 02:31N 51°27' E 003°43'0 0.0
2014-Jul-25 01:31N 51°27' E 003°43'0 0.0
2014-Jul-25 00:31N 51°27' E 003°43'0 0.0
2014-Jul-24 23:31N 51°27' E 003°43'0 0.0
2014-Jul-24 22:31N 51°27' E 003°43'0 0.0
2014-Jul-24 21:31N 51°27' E 003°43'0 0.0
2014-Jul-24 20:25N 51°27' E 003°43'0 0.0
2014-Jul-24 19:31N 51°27' E 003°43'0 0.0
2014-Jul-24 18:31N 51°27' E 003°43'0 0.1
2014-Jul-24 17:33N 51°27' E 003°43'6 5.9
2014-Jul-24 16:33N 51°26' E 003°34'9 8.9
2014-Jul-24 15:33N 51°33' E 003°25'10 9.8
2014-Jul-24 14:32N 51°42' E 003°17'8 8.5
2014-Jul-24 13:34N 51°48' E 003°08'5 4.9
2014-Jul-24 12:33N 51°52' E 003°04'9 9.3
2014-Jul-24 11:32N 51°59' E 002°54'1010.1
2014-Jul-24 10:33N 52°05' E 002°40'1010.5
2014-Jul-24 09:33N 52°14' E 002°32'3711.3
2014-Jul-24 06:17N 52°44' E 001°56'1212.4
2014-Jul-24 05:18N 52°52' E 001°41'912.2
2014-Jul-24 04:33N 52°57' E 001°28'4610.5
2014-Jul-24 00:14N 53°30' E 000°36'1910.5
2014-Jul-23 22:27N 53°48' E 000°24'21 9.6
2014-Jul-23 20:18N 54°06' E 000°07'7 9.2
2014-Jul-23 19:33N 54°12' E 000°01'10 9.5
2014-Jul-23 18:33N 54°20' W 000°08'10 9.8
2014-Jul-23 17:33N 54°27' W 000°18'1110.2
2014-Jul-23 16:29N 54°34' W 000°33'1010.5
2014-Jul-23 15:33N 54°39' W 000°47'1110.8
2014-Jul-23 14:33N 54°45' W 001°03'1110.1
2014-Jul-23 13:30N 54°50' W 001°19'0 0.0
2014-Jul-22 23:18N 54°50' W 001°20'0 0.0
2014-Jul-22 15:28N 54°50' W 001°20'0 0.0
2014-Jul-22 14:19N 54°50' W 001°20'0 0.0
2014-Jul-22 13:34N 54°50' W 001°20'0 0.0
2014-Jul-22 11:18N 54°50' W 001°20'0 0.0
2014-Jul-22 10:28N 54°50' W 001°20'1 1.3
2014-Jul-22 09:33N 54°50' W 001°18'0 0.1
2014-Jul-22 07:32N 54°50' W 001°18'5 4.6
2014-Jul-22 06:32N 54°48' W 001°10'1110.2
2014-Jul-22 05:26N 54°42' W 000°55'910.2
2014-Jul-22 04:33N 54°37' W 000°41'10 9.8
2014-Jul-22 03:33N 54°32' W 000°27'9 9.2
2014-Jul-22 02:34N 54°25' W 000°16'9 8.7
2014-Jul-22 01:33N 54°19' W 000°06'8 8.3
2014-Jul-22 00:34N 54°13' E 000°03'8 8.3
2014-Jul-21 23:34N 54°06' E 000°12'74 9.1
2014-Jul-21 15:28N 53°01' E 001°12'7 7.6
2014-Jul-21 14:33N 52°59' E 001°23'7 7.4
2014-Jul-21 13:34N 52°56' E 001°34'8 8.1
2014-Jul-21 12:33N 52°50' E 001°44'77 9.6
2014-Jul-21 04:32N 51°51' E 003°04'9 8.9
2014-Jul-21 03:30N 51°44' E 003°13'6 6.8
2014-Jul-21 02:33N 51°39' E 003°20'11 9.2
2014-Jul-21 01:22N 51°30' E 003°29'8 9.6
2014-Jul-21 00:33N 51°25' E 003°39'8 8.1
2014-Jul-20 23:33N 51°20' E 003°49'7 6.7
2014-Jul-20 22:33N 51°13' E 003°48'2 2.3
2014-Jul-20 21:31N 51°11' E 003°48'0 0.0
2014-Jul-20 20:28N 51°11' E 003°48'0 0.0
2014-Jul-20 19:16N 51°11' E 003°48'0 0.0
2014-Jul-20 18:16N 51°11' E 003°48'0 0.0
2014-Jul-20 17:22N 51°11' E 003°48'0 0.0
2014-Jul-20 16:31N 51°11' E 003°48'0 0.0
2014-Jul-20 15:22N 51°11' E 003°48'0 0.0
2014-Jul-20 13:25N 51°11' E 003°48'0 0.0
2014-Jul-20 12:10N 51°11' E 003°48'0 0.0
2014-Jul-20 11:22N 51°11' E 003°48'0 0.0
2014-Jul-20 10:22N 51°11' E 003°48'0 0.0
2014-Jul-20 09:22N 51°11' E 003°48'0 0.0
2014-Jul-20 08:22N 51°11' E 003°48'0 0.0
2014-Jul-20 07:25N 51°11' E 003°48'0 0.0
2014-Jul-20 06:22N 51°11' E 003°48'0 0.0
2014-Jul-20 05:22N 51°11' E 003°48'0 0.0
2014-Jul-20 04:31N 51°11' E 003°48'0 0.0
2014-Jul-20 03:31N 51°11' E 003°48'0 0.0
2014-Jul-20 02:31N 51°11' E 003°48'0 0.0
2014-Jul-20 01:31N 51°11' E 003°48'0 0.0
2014-Jul-20 00:31N 51°11' E 003°48'0 0.0
2014-Jul-19 23:16N 51°11' E 003°48'0 0.0
2014-Jul-19 22:28N 51°11' E 003°48'0 0.0
2014-Jul-19 21:31N 51°11' E 003°48'0 0.0
2014-Jul-19 20:28N 51°11' E 003°48'0 0.0
2014-Jul-19 19:25N 51°11' E 003°48'0 0.0
2014-Jul-19 18:28N 51°11' E 003°48'0 0.0
2014-Jul-19 17:28N 51°11' E 003°48'0 0.0
2014-Jul-19 16:31N 51°11' E 003°48'0 0.0
2014-Jul-19 15:33N 51°11' E 003°48'0 0.0
2014-Jul-19 14:32N 51°11' E 003°48'0 0.0
2014-Jul-19 13:33N 51°11' E 003°48'0 0.0
2014-Jul-19 12:33N 51°11' E 003°48'0 0.0
2014-Jul-19 11:33N 51°11' E 003°48'0 0.0
2014-Jul-19 10:33N 51°11' E 003°48'0 0.0
2014-Jul-19 09:33N 51°11' E 003°48'0 0.0
2014-Jul-19 08:33N 51°11' E 003°48'0 0.0
2014-Jul-19 07:33N 51°11' E 003°48'0 0.0
2014-Jul-19 06:33N 51°11' E 003°48'0 0.0
2014-Jul-19 05:32N 51°11' E 003°48'0 0.0
2014-Jul-19 04:32N 51°11' E 003°48'0 0.0
2014-Jul-19 03:33N 51°11' E 003°48'0 0.0
2014-Jul-19 02:32N 51°11' E 003°48'0 0.0
2014-Jul-19 01:19N 51°11' E 003°48'0 0.0
2014-Jul-19 00:32N 51°11' E 003°48'0 0.0
2014-Jul-18 23:33N 51°11' E 003°48'6 5.7
2014-Jul-18 22:33N 51°16' E 003°50'5 5.1
2014-Jul-18 21:33N 51°21' E 003°47'7 7.4
2014-Jul-18 20:34N 51°25' E 003°38'9 8.3
2014-Jul-18 19:31N 51°31' E 003°27'  

Dump ship's entire track history